STARLINK-11597, 63115

Orbit data source: Space-Track

STARLINK-11597, 63115 is a payload satellite owned by SpaceX/Seattle (US) in LEO that was launched on Thu, 27 Feb 2025 UTC via an FALCON 9 launch vehicle from the Air Force Eastern Test Range (AFETR). Payload-class satellites include a variety of spacecraft equipped with specific instruments for various scientific and technological missions. These include communications satellites like Starlink; space stations such as the ISS; scientific satellites like the Hubble; Earth observation satellites from companies like Planet Labs, Umbra, and HawkEye 360; GPS; miniature CubeSats for education and research; and military/defense satellites.

Loading next visibility...
Identifier
63115, 2025-039M
Orbit
LEO
Last TLE update
12 hours ago
Origin
Manufacturer
SpaceX/Seattle
Mission
Operational Commercial Communications
Bus & Motor
STARLINK V2M, Unknown motor
Mass
730 kg wet, ~700 kg dry
Launch date (UTC)
2025-02-27 (4 months ago)
Launch vehicle
FALCON 9
Launch site
Air Force Eastern Test Range (AFETR)
Object type
Payload
Rocket body
Debris
Shape & HBR
Box + 2 Pan, 29 m
Radar Cross Section
36.964 m², Large (>1 m²)

Expand to show TLE details & history

TLE from 12 hours ago
0 STARLINK-11597
1 63115U 25039M   25182.75708759  .00130200  00000-0  10021-2 0  9993
2 63115  42.9993 309.0817 0001501 269.0202  91.0493 15.70846008 20153
Epoch: 2025-07-01T18:10Z
TLE epoch observation values (Epoch: 2025-07-01T18:10:12.367Z)
Latitude
-0.00008°
Longitude
116.48212°
Altitude
356.268 km
Speed
7.697 km/s
True Right ascension
20h 36m 19s
True Declination
0° 00' 00"
Sunlit
Object was in full shadow at epoch
Visualization orbit readout
Latitude
-4.18174°
Longitude
108.94915°
Altitude
356.362 km
Speed
7.697 km/s
Apparent Right ascension
23h 06m 13s
Apparent Declination
-52° 04' 49"
Sunlit
Object is in full shadow
Visualization observer readout
Local Sidereal Time
18:02:48
Azimuth
139.649° SSE
Elevation
-23.016°
Doppler factor
1
Orbital elements
Apogee altitude
359.471 km
Perigee altitude
357.448 km
Semi-major axis
6,736.597 km
Eccentricity
0.00015
Inclination
42.9993°
RAAN
309.0817°
Arg. of periapsis
269.0202°
True anomaly
Unknown
Mean anomaly
91.0493°
Eccentric anomaly
Unknown
Mean motion
3.92539 °/min
Orbital period
91.71 mins
BSTAR
0.0010021
Loading maneuver chart data...
Loading SW <> Apogee altitude chart data...
Loading historical data...
Loading historical data...
Loading historical data...
Loading historical data...
Loading historical data...
Loading historical data...
Loading historical data...

STARLINK-11597 Visibility forecast

Observer location: undefined°, undefined°

Span
Click to sort rows by Start time (UTC) header in descending order
Start Az.
Max El. time (UTC)
Max El. Az.
Max El.
End time (UTC)
End Az.
4 mins2025-07-02 12:45:05.616Z249.267° W2025-07-02 12:46:05.616Z245.859° WSW41.52°2025-07-02 12:49:05.616Z72.237° E
4 mins2025-07-02 14:21:05.616Z294.424° NW2025-07-02 14:23:05.616Z20.22° NNE33.261°2025-07-02 14:25:05.616Z69.071° E
|